• în România
  • Lista ţărilor
  • Pe 7 zile
  • Temperatura apei
  • Hartă satelitară
  • Meteo pe hartă
  • Widget-uri
  • user-avatar
    Intrare

    Meteo pe oră la Pontypridd

    Astăzi, 24 Februarie, Sâmbătă

    Timp Temperatura Precipitaţii Vânt Presiune Umiditate
    00:00 -5°C° 0 mm 5 m/s 753 mmHg 85%
    01:00 -5°C° 0 mm 5 m/s 753 mmHg 85%
    02:00 -5°C° 0 mm 6 m/s 753 mmHg 85%
    03:00 -5°C° 0 mm 6 m/s 752 mmHg 85%
    04:00 -5°C° 0 mm 6 m/s 753 mmHg 85%
    05:00 -5°C° 0 mm 5 m/s 753 mmHg 84%
    06:00 -6°C° 0 mm 5 m/s 753 mmHg 87%
    07:00 -5°C° 0 mm 5 m/s 754 mmHg 82%
    08:00 -4°C° 0 mm 6 m/s 754 mmHg 76%
    09:00 -4°C° 0 mm 6 m/s 754 mmHg 71%
    10:00 -2°C° 0 mm 6 m/s 754 mmHg 65%
    11:00 -1°C° 0 mm 6 m/s 755 mmHg 59%
    12:00 +2°C° 0 mm 6 m/s 755 mmHg 54%
    13:00 +2°C° 0 mm 6 m/s 755 mmHg 53%
    14:00 +3°C° 0 mm 6 m/s 754 mmHg 53%
    15:00 +3°C° 0 mm 7 m/s 754 mmHg 53%
    16:00 +2°C° 0 mm 6 m/s 755 mmHg 55%
    17:00 +1°C° 0 mm 6 m/s 755 mmHg 57%
    18:00 -1°C° 0 mm 6 m/s 755 mmHg 59%
    19:00 -2°C° 0 mm 6 m/s 755 mmHg 60%
    20:00 -3°C° 0 mm 6 m/s 756 mmHg 60%
    21:00 -3°C° 0 mm 6 m/s 756 mmHg 61%
    22:00 -3°C° 0 mm 6 m/s 756 mmHg 63%
    23:00 -4°C° 0 mm 6 m/s 757 mmHg 66%

    Mâine, 25 Februarie, Duminică

    Timp Temperatura Precipitaţii Vânt Presiune Umiditate
    00:00 -4°C° 0 mm 7 m/s 757 mmHg 69%
    01:00 -4°C° 0 mm 7 m/s 757 mmHg 71%
    02:00 -4°C° 0 mm 6 m/s 757 mmHg 73%
    03:00 -4°C° 0 mm 6 m/s 757 mmHg 75%
    04:00 -4°C° 0 mm 7 m/s 758 mmHg 75%
    05:00 -4°C° 0 mm 7 m/s 758 mmHg 75%
    06:00 -4°C° 0 mm 7 m/s 758 mmHg 75%
    07:00 -4°C° 0 mm 7 m/s 758 mmHg 70%
    08:00 -4°C° 0 mm 8 m/s 759 mmHg 65%
    09:00 -4°C° 0 mm 8 m/s 759 mmHg 60%
    10:00 -2°C° 0 mm 8 m/s 759 mmHg 56%
    11:00 0°C° 0 mm 8 m/s 759 mmHg 52%
    12:00 +1°C° 0 mm 8 m/s 760 mmHg 47%
    13:00 +1°C° 0 mm 8 m/s 760 mmHg 48%
    14:00 +1°C° 0 mm 8 m/s 759 mmHg 48%
    15:00 +1°C° 0 mm 8 m/s 759 mmHg 49%
    16:00 0°C° 0 mm 7 m/s 760 mmHg 51%
    17:00 -1°C° 0 mm 7 m/s 760 mmHg 53%
    18:00 -2°C° 0 mm 7 m/s 760 mmHg 55%
    19:00 -3°C° 0 mm 7 m/s 760 mmHg 57%
    20:00 -4°C° 0 mm 7 m/s 761 mmHg 58%
    21:00 -6°C° 0 mm 7 m/s 761 mmHg 60%
    22:00 -6°C° 0 mm 7 m/s 761 mmHg 62%
    23:00 -6°C° 0 mm 7 m/s 761 mmHg 63%

    Poimâine, 26 Februarie, Luni

    Timp Temperatura Precipitaţii Vânt Presiune Umiditate
    00:00 -7°C° 0 mm 7 m/s 762 mmHg 65%
    01:00 -7°C° 0 mm 7 m/s 762 mmHg 68%
    02:00 -7°C° 0 mm 7 m/s 762 mmHg 70%
    03:00 -6°C° 0 mm 6 m/s 762 mmHg 72%
    04:00 -6°C° 0 mm 6 m/s 762 mmHg 73%
    05:00 -6°C° 0 mm 6 m/s 762 mmHg 74%
    06:00 -6°C° 0 mm 6 m/s 762 mmHg 75%
    07:00 -6°C° 0 mm 7 m/s 762 mmHg 69%
    08:00 -4°C° 0 mm 7 m/s 763 mmHg 62%
    09:00 -5°C° 0 mm 8 m/s 763 mmHg 56%
    10:00 -4°C° 0 mm 8 m/s 763 mmHg 51%
    11:00 -2°C° 0 mm 8 m/s 763 mmHg 47%
    12:00 -1°C° 0 mm 8 m/s 763 mmHg 42%
    13:00 -1°C° 0 mm 8 m/s 763 mmHg 43%
    14:00 -1°C° 0 mm 8 m/s 762 mmHg 43%
    15:00 -1°C° 0 mm 8 m/s 762 mmHg 44%
    16:00 -2°C° 0 mm 7 m/s 762 mmHg 48%
    17:00 -3°C° 0 mm 7 m/s 762 mmHg 52%
    18:00 -4°C° 0 mm 6 m/s 762 mmHg 56%
    19:00 -4°C° 0 mm 6 m/s 762 mmHg 60%
    20:00 -6°C° 0 mm 7 m/s 762 mmHg 64%
    21:00 -6°C° 0 mm 7 m/s 762 mmHg 68%
    22:00 -7°C° 0 mm 7 m/s 762 mmHg 70%
    23:00 -6°C° 0 mm 6 m/s 762 mmHg 72%

    27 Februarie, Marţi

    Timp Temperatura Precipitaţii Vânt Presiune Umiditate
    00:00 -6°C° 0 mm 6 m/s 762 mmHg 74%
    01:00 -6°C° 0 mm 6 m/s 762 mmHg 75%
    02:00 -6°C° 0 mm 6 m/s 761 mmHg 76%
    03:00 -7°C° 0 mm 5 m/s 761 mmHg 76%
    04:00 -7°C° 0 mm 5 m/s 760 mmHg 77%
    05:00 -7°C° 0 mm 5 m/s 760 mmHg 77%
    06:00 -7°C° 0 mm 5 m/s 760 mmHg 77%
    07:00 -6°C° 0 mm 5 m/s 759 mmHg 73%
    08:00 -5°C° 0 mm 6 m/s 759 mmHg 68%
    09:00 -4°C° 0 mm 6 m/s 759 mmHg 64%
    10:00 -3°C° 0 mm 6 m/s 758 mmHg 58%
    11:00 -3°C° 0 mm 6 m/s 758 mmHg 52%
    12:00 -2°C° 0 mm 6 m/s 758 mmHg 46%
    13:00 -2°C° 0,1 mm 6 m/s 757 mmHg 46%
    14:00 -2°C° 0,1 mm 6 m/s 757 mmHg 46%
    15:00 -2°C° 0,1 mm 6 m/s 756 mmHg 46%
    16:00 -3°C° 0 mm 6 m/s 756 mmHg 51%
    17:00 -4°C° 0 mm 5 m/s 756 mmHg 55%
    18:00 -5°C° 0 mm 5 m/s 755 mmHg 60%
    19:00 -5°C° 0 mm 5 m/s 755 mmHg 65%
    20:00 -6°C° 0 mm 5 m/s 755 mmHg 69%
    21:00 -6°C° 0 mm 5 m/s 755 mmHg 74%
    22:00 -7°C° 0 mm 5 m/s 755 mmHg 77%
    23:00 -7°C° 0 mm 5 m/s 755 mmHg 81%

    28 Februarie, Miercuri

    Timp Temperatura Precipitaţii Vânt Presiune Umiditate
    00:00 -7°C° 0 mm 5 m/s 754 mmHg 84%
    01:00 -7°C° 0 mm 5 m/s 754 mmHg 84%
    02:00 -8°C° 0 mm 6 m/s 753 mmHg 83%
    03:00 -8°C° 0 mm 6 m/s 753 mmHg 83%
    04:00 -8°C° 0 mm 6 m/s 752 mmHg 82%
    05:00 -8°C° 0 mm 6 m/s 752 mmHg 81%
    06:00 -9°C° 0 mm 6 m/s 752 mmHg 79%
    07:00 -8°C° 0 mm 6 m/s 751 mmHg 77%
    08:00 -8°C° 0 mm 7 m/s 751 mmHg 74%
    09:00 -7°C° 0 mm 7 m/s 751 mmHg 72%
    10:00 -6°C° 0 mm 7 m/s 751 mmHg 63%
    11:00 -4°C° 0 mm 7 m/s 750 mmHg 55%
    12:00 -3°C° 0 mm 7 m/s 750 mmHg 46%
    13:00 -3°C° 0 mm 7 m/s 750 mmHg 43%
    14:00 -4°C° 0 mm 8 m/s 749 mmHg 40%
    15:00 -4°C° 0 mm 8 m/s 749 mmHg 37%
    16:00 -5°C° 0 mm 8 m/s 749 mmHg 41%
    17:00 -6°C° 0 mm 8 m/s 749 mmHg 45%
    18:00 -8°C° 0 mm 8 m/s 749 mmHg 50%
    19:00 -8°C° 0 mm 8 m/s 749 mmHg 54%
    20:00 -10°C° 0 mm 9 m/s 749 mmHg 58%
    21:00 -11°C° 0 mm 9 m/s 749 mmHg 62%
    22:00 -11°C° 0 mm 9 m/s 748 mmHg 64%
    23:00 -11°C° 0 mm 9 m/s 748 mmHg 66%

    1 Martie, Joi

    Timp Temperatura Precipitaţii Vânt Presiune Umiditate
    00:00 -11°C° 0 mm 9 m/s 748 mmHg 68%
    01:00 -11°C° 0 mm 9 m/s 747 mmHg 69%
    02:00 -11°C° 0 mm 9 m/s 746 mmHg 70%
    03:00 -11°C° 0 mm 9 m/s 746 mmHg 70%
    04:00 -11°C° 0 mm 9 m/s 745 mmHg 71%
    05:00 -12°C° 0 mm 10 m/s 744 mmHg 71%
    06:00 -12°C° 0 mm 10 m/s 744 mmHg 72%
    07:00 -10°C° 0 mm 10 m/s 743 mmHg 70%
    08:00 -9°C° 0 mm 11 m/s 743 mmHg 69%
    09:00 -9°C° 0 mm 11 m/s 742 mmHg 68%
    10:00 -8°C° 0 mm 11 m/s 742 mmHg 66%
    11:00 -7°C° 0 mm 11 m/s 741 mmHg 64%
    12:00 -6°C° 0 mm 11 m/s 740 mmHg 62%
    13:00 -6°C° 0 mm 11 m/s 739 mmHg 64%
    14:00 -6°C° 0 mm 11 m/s 739 mmHg 67%
    15:00 -6°C° 0 mm 12 m/s 738 mmHg 69%
    16:00 -6°C° 0,2 mm 12 m/s 737 mmHg 73%
    17:00 -7°C° 0,2 mm 13 m/s 736 mmHg 78%
    18:00 -7°C° 0,2 mm 13 m/s 735 mmHg 83%
    19:00 -7°C° 1,1 mm 13 m/s 735 mmHg 85%
    20:00 -8°C° 1,1 mm 14 m/s 734 mmHg 88%
    21:00 -8°C° 1,1 mm 14 m/s 733 mmHg 90%
    22:00 -6°C° 1 mm 14 m/s 732 mmHg 91%
    23:00 -6°C° 1 mm 14 m/s 731 mmHg 91%
    Arată mai mult